Regional Weather Roundup
Issued by NWS Little Rock, AR

Home | Current Version | Previous Version | Text Only | Print | Product List | Glossary On
Versions: 1 2 3 4 5 6 7 8 9 10 11 12 13 14 15 16 17 18 19 20 21 22 23 24 25 26 27 28 29 30 31 32
000
ASUS44 KLZK 300905
RWRLZK

WEATHER ROUNDUP FOR ARKANSAS
NATIONAL WEATHER SERVICE LITTLE ROCK AR
400 AM CDT THU MAR 30 2017

NOTE: "FAIR" INDICATES FEW OR NO CLOUDS BELOW 12,000 FEET WITH NO
SIGNIFICANT WEATHER AND/OR OBSTRUCTIONS TO VISIBILITY.

ARZ001-003-010-029-301000-
NORTHWEST ARKANSAS

CITY           SKY/WX    TMP DP  RH WIND       PRES   REMARKS
FAYETTEVILLE   MOCLDY    47  42  83 SW10G20   29.68F
FORT SMITH     PTCLDY    50  42  74 W7        29.71F
HARRISON       CLEAR     57  51  80 SW3       29.63F
BENTONVILLE    MOCLDY    46  39  76 SW8       29.67F
ROGERS         MOCLDY    47  42  83 SW13      29.67S
SILOAM SPGS    CLOUDY    46  37  71 SW12      29.67F
HIGHFILL       MOCLDY    48  41  76 SW12      29.66F
$$

ARZ004-005-016-301000-
NORTH CENTRAL ARKANSAS

CITY           SKY/WX    TMP DP  RH WIND       PRES   REMARKS
BATESVILLE     CLOUDY    63  61  94 SE6       29.66S
FLIPPIN        PTCLDY    61  55  82 CALM      29.60F
MTN HOME       MOCLDY    59  58  96 CALM      29.62F
$$

ARZ040-041-301000-
WEST CENTRAL ARKANSAS

CITY           SKY/WX    TMP DP  RH WIND       PRES   REMARKS
MENA           CLOUDY    54  54 100 W5        29.72R
MOUNT IDA      CLOUDY    59  58  96 CALM      29.66R
$$

ARZ009-017-025-026-028-301000-
NORTHEAST ARKANSAS

CITY           SKY/WX    TMP DP  RH WIND       PRES   REMARKS
JONESBORO      CLOUDY    66  59  78 S15       29.68F
NEWPORT        CLOUDY    67  60  78 S16       29.67F
WALNUT RIDGE   CLOUDY    64  57  77 S15       29.65F
BLYTHEVILLE    CLOUDY    68  60  75 S16       29.71F
$$

ARZ022-023-033-042-044-301000-
CENTRAL ARKANSAS

CITY           SKY/WX    TMP DP  RH WIND       PRES   REMARKS
LITTLE ROCK    PTCLDY    61  60  97 S8        29.67F
N LITTLE ROCK    N/A     62  59  90 S5        29.66F
JACKSONVILLE   CLEAR     63  60  90 S5        29.66F
CONWAY           N/A     63  61  94 SW5       29.65F
SEARCY         PTCLDY    63  61  93 S8        29.68S
HOT SPRINGS    PTCLDY    61  60  97 SW5       29.68S
$$

ARZ036-301000-
EAST ARKANSAS

CITY           SKY/WX    TMP DP  RH WIND       PRES   REMARKS
$$

ARZ050-053-066-070-073-301000-
SOUTHWEST ARKANSAS

CITY           SKY/WX    TMP DP  RH WIND       PRES   REMARKS
ARKADELPHIA    FAIR      62  60  93 SW10      29.70R
CAMDEN         CLEAR     63  57  82 S5        29.71R
TEXARKANA      CLEAR     56  48  74 W12       29.74R
EL DORADO      CLOUDY    63  62  97 S7        29.72S
DE QUEEN       CLEAR     53  48  83 W8        29.73R
$$

ARZ056-057-069-301000-
SOUTHEAST ARKANSAS

CITY           SKY/WX    TMP DP  RH WIND       PRES   REMARKS
PINE BLUFF     MOCLDY    63  60  90 S13       29.70F
STUTTGART      CLOUDY    66  54  63 S20       29.70F
MONTICELLO     MOCLDY    66  63  90 S8        29.71F

$$






USA.gov is the U.S. government's official web portal to all federal, state and local government web resources and services.